Regional Weather Roundup
Issued by NWS Green Bay, WI

Home | Current Version | Previous Version | Text Only | Print | Product List | Glossary On
Versions: 1 2 3 4 5 6 7 8 9 10 11 12 13 14 15 16 17 18 19 20 21 22 23 24 25 26 27 28 29 30 31 32 33 34 35 36 37 38 39 40 41 42 43 44 45 46 47 48 49 50
000
ASUS43 KGRB 300700
RWRGRB

NORTH-CENTRAL AND NORTHEAST WISCONSIN REGIONAL WEATHER ROUNDUP
NATIONAL WEATHER SERVICE GREEN BAY WI
200 AM CDT SAT APR 30 2016

WIZ005-009-010>012-018-019-300800-
NORTH CENTRAL WISCONSIN

CITY           SKY/WX    TMP DP  RH WIND       PRES   REMARKS
IRONWOOD         N/A     34  32  93 CALM      30.20R
MANITOWISH WTR NOT AVBL
ARBOR VITAE    NOT AVBL
EAGLE RIVER    NOT AVBL
LAND O LAKES   NOT AVBL
RHINELANDER    CLEAR     38  29  70 E5        30.18R
PHILLIPS       NOT AVBL
ANTIGO         NOT AVBL
TOMAHAWK       NOT AVBL
MERRILL        NOT AVBL
$$

WIZ013-073-300800-
NORTHEAST WISCONSIN

CITY           SKY/WX    TMP DP  RH WIND       PRES   REMARKS
IRON MOUNTAIN  CLEAR     38  27  64 CALM      30.18R
MARINETTE      PTCLDY    43  30  61 NE7       30.17F
$$

WIZ017-030-035>037-045-300800-
CENTRAL WISCONSIN

CITY           SKY/WX    TMP DP  RH WIND       PRES   REMARKS
MEDFORD        NOT AVBL
WAUSAU         PTCLDY    39  34  82 E5        30.15R
MOSINEE        NOT AVBL
MARSHFIELD     CLOUDY    42  33  70 E6        30.13R
WISC RAPIDS    CLOUDY    41  31  67 E6        30.15R
STEVENS POINT  NOT AVBL
WAUPACA        NOT AVBL
SHAWANO        NOT AVBL
CLINTONVILLE   NOT AVBL
WAUTOMA        NOT AVBL
$$

WIZ038-039-048-051-300800-
FOX VALLEY

CITY           SKY/WX    TMP DP  RH WIND       PRES   REMARKS
NWS GREEN BAY  CLEAR     38  34  85 NW3       30.16R
APPLETON       NOT AVBL
OSHKOSH        PTCLDY    41  31  67 CALM      30.14R
FOND DU LAC    PTCLDY    36  30  79 CALM      30.15R
$$

WIZ022-050-052-300800-
EAST CENTRAL WISCONSIN

CITY           SKY/WX    TMP DP  RH WIND       PRES   REMARKS
EPHRAIM        NOT AVBL
STURGEON BAY   CLEAR     41  27  56 NE8       30.18S
MANITOWOC      NOT AVBL
SHEBOYGAN      CLOUDY    34  29  82 SW5       30.14R
$$

LMZ563-521-522-541>543-300800-
LAKESHORE

STATION/POSITION TIME  TEMP    WIND        PRES    VSBY  WAVE
                       AIR SEA DIR/SP/G                  HT/PER
                 (UTC) (F)     (DEG/KT/KT) (MB)    (MI)  (FT/S)
SHEBOYGAN LKSHOR 0600   42     330/  4/  5 1021.0F
KEWAUNEE LKSHORE 0600   42     330/  2/  4 1020.3R
ALGOMA MARINA    0615          340/  8/  9   N/A
NORTHPORT PIER   0600   42     350/  3/  5 1022.0R
N MID LAKE BUOY  0550   41 38   30/  6/  8 1022.0R         0
CHAMBERS ISLAND  0640   41      20/  8/ 10 1022.0R
MENOMINEE LKSHOR 0600   43      30/  8/  8 1020.8R
$$




USA.gov is the U.S. government's official web portal to all federal, state and local government web resources and services.